Location: Prague
(50.0830°N, 14.4670°E)
Time: 19:46:36
(UTC+01:00)

CAS-4A - Visible Passes

Search period start: 06 December 2021 00:00
Search period end: 16 December 2021 00:00
Orbit: 529 x 539 km, 43.0° (Epoch: 06 December)

Date Brightness Start Highest point End Pass type
(mag) Time Alt. Az. Time Alt. Az. Time Alt. Az.
07 Dec ? 18:37:20 10° S 18:37:31 10° S 18:37:31 10° S visible
08 Dec ? 18:25:33 10° S 18:27:03 14° SSE 18:27:03 14° SSE visible
09 Dec ? 18:13:55 10° SSW 18:16:32 17° SSE 18:16:32 17° SSE visible
10 Dec ? 18:02:23 10° SSW 18:05:18 19° SSE 18:05:58 18° SE visible
10 Dec ? 19:41:07 10° WSW 19:41:16 11° WSW 19:41:16 11° WSW visible
11 Dec ? 17:50:56 10° SSW 17:54:01 21° SSE 17:55:23 18° SE visible
11 Dec ? 19:29:51 10° WSW 19:30:40 15° SW 19:30:40 15° SW visible
12 Dec ? 17:39:30 10° SW 17:42:46 23° SSE 17:44:46 16° SE visible
12 Dec ? 19:18:37 10° WSW 19:20:04 19° SW 19:20:04 19° SW visible
13 Dec ? 17:28:07 10° SW 17:31:30 25° SSE 17:34:10 14° ESE visible
13 Dec ? 19:07:24 10° WSW 19:09:27 23° SW 19:09:27 23° SW visible
14 Dec ? 17:16:47 10° SW 17:20:15 27° S 17:23:34 11° ESE visible
14 Dec ? 18:56:11 10° WSW 18:58:51 26° SSW 18:58:51 26° SSW visible
15 Dec ? 17:05:27 10° SW 17:08:59 28° S 17:12:32 10° ESE visible
15 Dec ? 18:44:58 10° WSW 18:48:17 28° SSW 18:48:17 28° SSW visible
